Wind_Speed
17 17 17 17 17 17 17 17 17 17 17 17 18 18 19 20 20 21 21 22 22 21 20 19 19 19 20 20 19 19 19 20 18 20 24 16 11 12 12 14 12 10 15 15 13 16 19 20 21 19 17 15 15 15 12 13 9 5 4 4 3 3 6 11 5 6 4 8 6 8 6 6 10 8 8 7 9 11 9 9 10 8 8 11 21 29 31 31
18 18 19 18 18 18 18 18 19 19 19 19 19 19 20 20 20 21 20 21 22 22 21 20 19 18 19 19 18 19 19 20 20 25 24 11 10 13 8 9 12 12 13 16 19 20 21 21 22 20 18 15 15 14 12 12 10 8 5 5 2 2 11 12 3 5 4 6 6 7 5 4 8 8 6 6 9 10 9 10 11 11 13 17 25 30 31 31
19 19 20 20 20 20 20 20 21 21 21 20 20 20 21 21 21 21 20 20 21 22 22 20 19 17 17 17 17 17 18 19 22 28 26 16 17 18 15 13 13 13 14 18 21 20 20 20 21 20 18 15 15 14 12 11 10 10 8 5 2 6 16 7 3 4 6 4 4 6 7 6 6 7 5 5 9 8 7 10 11 14 16 21 26 29 31 31
20 20 21 21 21 21 22 22 22 23 23 22 22 22 22 22 22 21 20 20 20 21 21 20 19 16 15 15 15 14 14 17 19 20 19 18 18 17 19 18 17 16 15 18 21 19 18 18 20 20 18 14 15 15 12 11 9 9 10 4 3 12 12 3 3 4 6 4 5 6 6 7 7 8 5 6 7 6 8 10 11 15 19 23 26 28 31 31
21 21 21 21 21 22 22 22 23 23 24 24 23 24 23 23 22 21 20 20 20 20 19 19 18 16 15 13 12 9 7 8 6 8 12 13 10 11 14 16 19 18 17 19 20 20 19 19 20 20 17 13 14 13 12 15 12 8 10 5 5 13 6 5 2 5 4 2 4 2 3 7 8 7 6 5 3 3 6 11 13 17 22 25 27 28 29 31
22 22 22 22 22 22 22 23 23 24 24 24 24 25 25 24 23 22 21 20 19 20 19 18 17 14 13 12 11 7 7 6 3 2 7 8 10 11 9 10 18 20 19 21 20 20 21 20 21 20 17 14 13 13 12 16 14 8 8 8 9 12 6 2 1 2 1 2 1 1 3 5 5 6 6 5 3 5 7 10 14 18 22 25 28 29 29 31
23 23 23 23 23 23 23 24 24 24 24 24 24 25 25 24 23 21 20 20 19 19 18 17 15 13 12 11 10 8 15 18 8 4 6 9 13 8 6 4 16 24 23 23 22 22 22 22 23 21 16 13 14 14 14 16 16 12 8 9 10 10 9 5 3 4 5 4 4 3 1 4 5 4 6 6 7 7 8 10 14 19 22 24 28 29 29 30
24 24 24 24 24 24 24 25 25 25 25 24 24 25 25 24 23 21 20 19 18 18 17 16 13 11 11 10 10 11 21 27 19 13 13 12 11 6 3 1 12 25 24 25 24 22 23 23 24 21 15 13 14 14 16 16 15 15 11 10 9 9 10 8 7 8 9 8 7 6 5 6 5 3 4 7 9 9 8 11 16 20 22 23 26 27 28 29
26 26 26 25 25 25 25 26 26 26 25 25 25 25 25 24 22 21 20 18 17 17 15 15 12 11 11 10 10 12 20 21 15 14 16 17 17 17 15 8 9 24 25 24 25 23 23 23 24 22 15 14 16 14 16 14 10 13 15 14 11 10 10 9 10 11 11 11 8 8 8 7 6 5 5 8 10 11 10 12 17 22 23 23 25 26 28 29
27 27 27 27 27 27 27 26 26 26 26 25 25 25 26 24 22 21 19 17 16 15 14 13 11 11 12 11 11 12 14 11 9 12 16 17 17 20 20 13 12 22 25 24 25 25 23 22 22 22 17 15 16 14 15 14 10 11 13 17 15 12 12 11 12 14 13 12 11 10 8 8 8 7 6 9 12 12 13 15 19 22 23 24 24 25 27 28
27 27 28 28 28 29 28 28 27 27 26 25 25 25 26 25 21 20 18 16 15 13 12 12 11 12 11 11 15 13 8 6 6 8 13 14 17 21 21 17 17 21 25 25 25 26 24 21 20 20 16 13 14 14 15 16 14 12 10 12 15 14 15 14 14 15 14 11 12 11 10 10 9 8 6 10 15 14 14 16 19 20 22 23 24 25 26 27
28 28 28 28 29 29 30 29 28 27 26 25 25 25 26 24 21 19 18 16 14 11 11 10 10 12 10 13 24 22 10 6 6 6 10 11 17 21 19 18 21 22 24 24 24 25 24 22 20 20 16 11 12 11 12 17 19 16 12 10 12 14 15 17 16 16 14 11 12 12 10 11 11 11 9 11 16 16 16 17 18 19 20 22 24 26 26 26
28 28 29 29 29 30 30 30 29 29 27 25 24 24 25 23 20 19 18 16 14 11 9 9 10 11 10 15 23 20 14 12 9 7 9 10 14 18 17 19 22 22 22 22 22 23 24 23 22 22 19 13 12 8 4 12 18 15 13 10 11 12 13 16 18 18 16 13 15 11 7 9 10 13 13 12 15 15 16 18 17 19 21 22 24 26 27 27
28 29 29 30 29 30 31 30 31 30 28 26 24 23 23 22 21 20 18 16 14 11 9 9 9 8 11 18 16 11 14 17 14 12 11 11 13 16 17 19 20 21 21 21 19 20 22 22 21 22 22 17 15 11 5 9 13 12 12 10 9 10 10 15 18 18 17 14 17 13 7 7 7 13 15 13 15 15 16 18 17 19 21 22 23 25 27 28
28 29 30 30 30 30 30 31 31 31 30 27 24 22 21 20 21 20 18 16 13 11 8 7 6 9 11 20 18 13 15 17 19 18 14 13 14 15 18 18 19 20 20 20 18 18 20 22 22 20 20 20 17 13 9 9 10 10 11 10 10 10 10 14 17 18 16 15 18 14 7 7 7 11 16 14 14 14 15 18 19 20 21 20 20 22 25 27
29 29 30 30 30 29 30 30 31 32 31 27 23 21 20 20 20 19 18 15 12 9 5 3 3 7 10 12 10 14 17 18 22 21 17 17 15 14 17 17 18 20 18 19 17 16 18 20 22 20 18 17 15 11 7 8 10 10 11 10 11 13 11 11 14 17 17 14 16 15 9 7 6 11 15 15 14 13 13 16 19 20 20 21 19 20 22 26
29 30 30 31 30 30 30 30 31 32 30 27 24 20 19 18 17 17 16 13 10 7 3 2 2 8 12 8 7 12 18 19 19 21 21 20 17 13 16 18 18 19 18 17 15 15 19 20 18 16 16 13 11 11 9 11 11 10 10 11 12 14 12 11 11 16 18 15 15 16 12 9 7 11 14 15 14 13 12 14 18 19 19 21 20 21 22 24
30 30 31 31 31 30 29 29 31 30 29 28 23 19 16 16 18 17 11 8 6 4 5 6 7 7 11 15 13 9 14 19 18 20 22 22 19 14 16 18 18 19 18 16 16 17 19 18 15 11 12 13 12 13 12 13 13 12 12 11 12 13 14 14 12 13 17 16 15 15 13 12 10 11 14 15 15 13 11 13 17 19 20 22 22 22 21 23
30 30 31 31 31 30 29 30 30 28 30 28 22 18 14 15 18 11 2 4 4 5 5 8 16 9 6 9 16 7 5 14 18 19 22 24 22 16 17 18 18 21 19 14 16 20 17 14 14 12 12 15 16 16 16 15 15 15 15 12 12 13 13 14 12 12 15 16 17 16 14 13 14 13 14 16 16 14 12 13 16 19 19 21 22 22 21 23
30 31 32 31 31 30 29 30 28 27 27 25 25 20 12 14 12 3 4 11 16 17 19 13 19 20 14 7 11 9 5 11 17 20 23 25 24 20 20 19 20 20 17 13 14 20 18 12 13 15 15 18 20 20 19 19 18 16 14 14 15 15 13 12 12 12 12 12 15 16 16 15 14 16 16 17 17 14 14 13 15 19 20 20 22 22 22 23
30 31 31 32 32 29 29 29 26 24 23 21 23 18 11 14 10 7 17 24 22 23 29 29 24 27 27 17 9 8 9 11 17 20 22 26 26 22 21 22 18 15 16 16 15 17 18 13 16 19 19 20 20 20 20 20 21 18 14 13 14 14 13 13 15 15 12 10 11 13 16 17 15 16 15 15 15 14 15 14 15 18 19 21 22 22 21 22
30 30 30 30 31 29 28 27 22 22 23 17 16 15 11 14 11 11 17 21 27 26 26 30 30 30 31 28 18 10 11 14 18 21 23 28 29 23 21 22 17 13 16 18 13 14 15 15 19 21 19 19 18 19 21 21 20 18 13 11 12 11 12 14 16 17 13 8 9 14 14 15 15 15 13 12 13 16 18 16 15 17 18 20 21 21 21 24
29 29 29 29 29 29 27 24 20 22 22 14 11 14 14 14 12 13 15 15 26 30 25 28 31 31 31 29 24 18 15 16 18 23 27 30 31 28 23 20 17 16 18 18 15 13 12 15 20 21 19 20 20 19 21 19 16 15 13 11 11 12 12 12 13 16 15 9 9 14 14 13 14 15 14 17 18 17 19 19 17 17 19 20 20 22 24 27
29 29 29 29 28 28 25 20 18 19 17 10 9 14 16 16 14 15 16 14 17 23 25 29 29 30 31 27 24 25 23 20 18 22 29 31 32 29 23 21 20 17 17 22 22 18 14 13 18 21 20 20 21 19 19 16 13 15 17 14 13 15 15 12 12 15 16 13 12 14 12 10 13 15 14 16 19 15 18 21 19 17 20 23 23 24 25 27
29 28 29 29 28 29 23 12 12 18 15 8 10 16 17 16 15 15 14 11 11 13 16 20 23 25 27 23 21 26 24 22 22 22 28 33 32 25 20 21 19 16 20 25 23 18 16 14 16 21 21 20 21 18 18 15 12 14 19 19 17 17 18 16 15 14 12 11 13 14 11 9 13 16 15 14 16 17 18 19 20 19 19 24 27 27 28 27
30 28 29 28 26 29 22 9 12 19 13 9 14 19 18 16 16 14 9 7 8 9 8 12 16 15 19 21 22 22 18 21 27 25 26 32 32 25 19 17 15 17 21 20 16 11 14 17 16 18 21 22 20 17 19 18 12 11 15 20 21 20 18 17 17 15 10 8 11 14 12 9 11 15 17 17 17 19 18 17 19 20 19 21 25 25 28 29
31 30 29 27 24 25 21 14 16 17 11 13 19 20 18 16 15 13 6 7 7 6 10 9 10 10 14 20 25 21 9 12 25 29 29 31 33 29 20 16 14 16 16 13 12 10 14 21 18 17 20 19 17 15 17 19 13 10 12 16 20 21 21 19 17 14 9 9 11 14 14 11 10 12 15 17 19 21 18 16 16 19 20 22 22 23 26 28
30 30 29 27 23 20 19 18 16 13 12 17 21 19 17 16 15 10 5 7 2 8 9 6 6 6 9 15 26 24 7 7 19 28 32 30 32 30 21 19 17 16 18 14 12 13 16 21 20 19 18 15 15 16 17 18 15 12 11 13 15 18 21 20 16 12 10 10 10 14 15 12 10 9 11 14 18 19 16 16 15 17 20 21 20 23 25 28
28 28 28 27 23 17 17 17 12 11 15 19 20 19 17 16 13 7 5 6 1 5 5 6 8 7 9 13 23 26 16 9 10 22 35 31 31 29 19 21 21 17 22 20 14 13 15 19 22 19 16 13 16 17 17 18 15 13 14 14 12 11 14 16 15 12 11 12 12 15 16 12 9 10 11 14 16 15 13 14 15 17 20 19 20 23 24 26
27 27 26 26 22 15 13 12 9 12 18 20 19 19 18 14 8 7 7 6 3 2 4 8 8 8 12 12 16 21 20 15 6 16 34 31 31 30 20 22 22 15 18 20 19 16 14 19 21 17 14 14 15 16 17 18 17 14 14 12 8 7 8 10 10 10 11 13 15 18 19 16 11 9 11 13 14 15 13 13 14 17 20 21 22 23 23 25
25 24 24 24 20 15 12 10 12 16 19 20 20 20 16 9 6 9 7 2 3 3 3 6 4 5 12 11 11 16 18 15 8 14 24 23 24 25 18 18 18 13 14 16 17 19 18 17 15 15 18 17 15 15 16 17 17 15 13 10 8 7 8 7 8 9 11 12 13 18 21 19 14 10 10 12 15 18 17 15 17 18 20 23 25 25 24 25
24 22 21 20 17 14 11 13 17 20 20 20 21 18 11 7 7 9 6 4 3 5 7 4 5 5 7 9 9 13 16 15 12 14 17 17 17 18 18 15 13 13 14 14 15 17 18 16 14 16 20 20 16 12 13 14 15 14 12 11 10 8 8 9 10 10 12 11 11 16 19 17 15 11 12 14 15 17 16 15 18 21 24 28 28 27 24 25
22 20 18 15 13 11 12 17 20 20 20 20 19 13 8 7 8 9 10 8 3 9 11 11 12 13 11 10 11 12 15 15 15 16 18 18 16 18 22 21 19 16 12 12 15 14 14 16 19 17 16 20 19 12 11 12 13 14 12 11 10 9 9 10 10 10 11 11 12 16 16 14 14 11 15 19 16 15 16 18 22 25 28 30 29 25 22 23
21 18 16 13 12 10 13 18 20 19 19 18 15 10 9 10 8 11 12 6 9 12 13 15 16 15 13 11 12 12 13 15 18 17 16 18 16 15 19 23 25 19 11 11 13 13 14 14 18 18 13 19 22 16 13 12 12 14 13 11 11 9 9 9 9 9 9 9 13 16 13 11 11 7 11 18 19 18 17 19 23 23 24 28 28 22 20 23
18 16 13 9 8 11 15 18 18 17 17 16 12 8 10 9 7 10 8 8 12 12 16 19 17 14 12 11 14 14 9 10 18 18 14 16 15 14 16 20 25 22 14 13 10 12 17 13 16 21 17 18 23 19 17 14 12 12 12 12 12 11 9 7 7 9 9 8 10 12 10 9 8 7 7 10 16 20 18 17 19 19 20 24 27 24 23 24
16 14 11 5 8 15 17 17 16 15 16 14 9 7 9 8 7 6 6 13 13 13 18 17 12 11 10 9 12 13 8 7 14 15 13 16 16 17 17 15 22 24 17 12 8 10 15 12 15 23 22 20 22 21 20 16 10 10 13 13 12 13 11 7 7 8 8 8 7 8 10 9 7 8 9 8 11 17 20 18 17 18 20 21 25 28 26 25
17 16 11 5 11 19 18 16 15 14 15 11 8 8 8 9 10 9 10 13 15 14 14 11 7 9 9 9 9 12 10 8 11 11 11 15 14 16 19 17 21 26 24 17 10 9 11 10 15 23 24 21 23 23 22 20 14 9 12 14 11 12 11 8 7 7 8 8 7 8 12 11 8 7 9 13 14 14 19 21 19 19 21 21 23 28 28 27
20 18 10 4 13 20 18 14 14 14 14 9 9 11 10 9 11 13 12 14 15 13 11 9 8 11 11 9 4 3 4 5 8 9 10 13 9 3 9 13 11 12 21 22 13 8 10 9 12 22 23 19 20 21 18 20 21 14 10 13 11 10 11 9 7 8 9 8 7 10 11 10 9 8 8 13 16 15 15 17 19 20 20 21 23 27 31 31
20 18 6 9 17 19 15 14 14 14 11 7 7 8 7 9 11 15 16 14 13 11 10 11 10 11 14 12 9 6 5 4 5 7 9 12 6 5 7 2 2 2 6 13 10 9 10 9 9 18 23 18 15 15 14 17 20 17 12 13 12 9 9 10 8 7 7 7 7 9 10 9 9 10 11 11 13 15 15 15 16 17 18 21 23 25 29 29
18 13 7 15 21 18 15 14 12 9 7 6 8 7 9 12 13 16 17 15 12 9 9 13 12 12 14 14 13 10 7 8 11 10 8 4 4 6 10 8 4 4 5 6 10 12 10 9 8 13 20 18 13 14 16 16 17 16 13 13 12 10 8 9 9 8 8 8 6 6 7 6 5 7 10 9 9 11 14 15 14 14 17 21 22 23 25 27
16 10 9 19 21 17 16 12 6 4 4 5 7 8 10 11 12 15 16 15 13 11 12 15 14 13 14 12 12 11 9 11 11 10 9 0 8 6 8 11 9 7 6 6 11 13 8 7 10 10 14 15 15 17 20 20 19 16 13 12 13 12 10 10 10 10 9 8 6 6 6 2 4 3 4 7 9 9 10 12 12 14 18 21 22 22 23 24
13 9 12 18 19 18 16 8 3 5 4 4 7 9 9 10 10 12 13 13 12 11 13 15 14 13 14 12 11 11 11 12 10 9 10 2 7 8 9 12 13 9 7 8 14 14 4 4 10 11 12 14 17 19 21 22 22 19 16 14 12 12 12 10 9 9 9 9 8 6 5 1 7 6 4 4 5 7 9 9 9 13 17 18 19 22 24 24
12 11 13 14 17 18 12 5 4 5 4 7 10 9 8 9 9 9 10 10 9 8 9 11 12 12 12 13 14 13 11 11 13 13 11 5 5 7 9 13 14 10 5 6 12 12 2 4 9 9 10 13 16 19 19 20 21 18 16 16 14 14 14 11 8 7 8 10 9 7 7 4 8 8 5 4 2 5 8 10 10 12 14 15 16 19 21 22
16 13 11 13 16 14 9 5 6 6 6 9 11 9 8 9 8 9 11 10 9 8 7 9 10 10 12 15 15 14 11 9 13 13 10 6 3 6 8 12 13 9 4 3 3 3 3 8 10 8 9 11 13 15 16 18 17 13 14 18 18 19 18 14 10 7 7 10 11 9 7 4 7 7 4 4 6 7 8 11 13 12 12 14 14 12 12 15
16 11 9 15 15 10 6 6 7 7 8 10 11 10 9 8 7 9 11 10 9 9 9 8 10 11 12 13 14 14 14 12 11 9 8 8 4 4 5 9 11 9 8 11 12 9 5 9 10 9 11 12 11 11 12 15 15 12 16 22 22 23 22 16 10 8 8 9 10 9 5 6 9 7 5 5 7 6 6 9 12 13 11 11 12 10 9 9
15 9 9 14 14 9 7 8 8 7 8 9 9 9 9 9 8 8 9 8 7 10 10 8 9 11 10 11 13 12 14 15 14 10 8 9 7 4 4 7 8 9 13 17 14 8 5 8 12 15 14 7 2 3 5 11 15 16 19 23 23 24 23 16 11 10 9 7 8 8 5 6 10 9 6 6 7 7 6 7 11 13 10 10 12 8 6 8
12 8 8 11 10 9 9 9 9 8 9 9 7 7 10 10 9 8 7 7 8 9 8 6 8 9 8 10 12 11 12 16 15 12 10 9 10 10 7 6 5 8 14 15 7 4 6 8 13 18 19 10 3 7 8 7 16 20 22 24 23 24 25 20 15 12 10 8 9 9 9 6 7 9 7 9 10 9 8 9 11 12 10 10 11 6 6 9
10 9 11 10 7 8 9 10 11 10 11 11 7 7 10 9 9 8 7 8 10 7 6 5 6 8 9 10 10 9 11 13 10 9 11 10 11 12 7 5 0 6 10 8 3 4 6 8 12 17 20 14 6 6 9 7 11 13 17 23 24 24 26 24 20 16 13 10 8 9 12 13 5 8 9 10 9 9 9 9 11 13 11 10 9 4 6 11
11 11 12 10 10 12 12 13 14 12 10 9 6 6 8 9 10 9 7 8 9 6 6 7 7 8 9 9 8 9 9 9 8 10 13 11 12 12 5 1 2 6 8 6 4 5 4 5 7 12 18 16 11 8 9 9 8 8 12 21 24 23 24 24 21 19 17 13 10 8 12 14 11 7 9 10 8 6 5 3 6 8 7 4 4 1 4 10
12 11 11 12 14 14 14 14 13 10 8 7 6 4 6 9 10 9 8 10 9 4 4 8 9 9 10 9 9 10 9 9 9 9 11 12 11 9 7 7 9 11 10 6 4 5 3 2 4 6 11 14 12 10 9 8 7 8 11 14 18 21 23 22 21 20 17 15 14 11 9 9 9 8 6 7 6 4 3 4 4 5 4 3 3 5 4 6
12 12 11 12 12 11 12 11 10 8 6 5 5 4 6 9 10 9 9 10 9 6 6 10 12 11 9 8 10 12 11 10 11 12 12 13 13 11 7 8 11 12 9 6 6 6 5 3 3 5 8 10 11 12 12 9 8 11 13 11 12 16 18 17 16 16 15 15 15 15 11 7 6 7 7 6 5 5 7 7 8 8 7 7 8 7 5 7
16 15 12 9 10 12 11 9 9 9 5 4 6 7 9 10 10 10 9 6 6 9 9 11 13 11 8 8 9 11 12 13 14 16 16 16 18 18 15 12 13 11 7 6 7 5 5 5 3 6 6 8 12 15 13 9 9 13 13 12 12 13 11 11 11 11 12 11 11 10 8 5 4 5 6 7 7 7 8 8 8 8 8 9 10 10 9 9
Wind_Direction
349 348 347 343 341 338 334 330 325 322 318 315 311 308 305 301 299 297 299 298 297 297 294 293 292 291 290 291 292 293 295 290 291 285 275 272 268 258 241 233 232 231 223 209 193 187 185 192 195 193 201 207 217 229 221 217 230 243 247 246 271 33 288 286 59 108 135 106 117 131 128 117 119 110 106 134 125 122 137 123 123 110 87 114 133 143 150 154
347 346 345 342 341 338 335 331 327 324 320 318 314 310 306 302 300 298 299 298 298 297 294 294 292 293 292 290 293 295 295 294 296 280 264 250 246 250 233 224 222 219 214 199 192 189 187 192 191 192 200 208 215 220 216 209 213 226 246 249 225 130 241 257 33 62 78 97 112 126 143 112 110 120 135 160 127 129 144 132 137 123 107 118 133 144 149 156
345 345 343 341 341 338 335 331 327 324 321 320 316 312 308 303 301 300 300 299 298 297 295 293 292 295 293 292 294 294 300 305 296 277 264 255 250 248 239 231 222 214 207 195 194 193 193 193 189 192 202 212 213 211 211 200 204 218 239 256 122 228 235 225 74 63 52 58 89 109 130 118 125 141 156 161 132 141 153 142 149 138 129 133 140 148 151 158
346 345 344 343 341 338 336 331 328 324 322 321 318 314 309 306 303 302 302 299 299 297 295 293 290 294 293 294 293 295 314 310 287 265 258 259 251 240 236 231 221 213 202 195 197 198 198 196 192 196 205 217 211 210 215 201 205 220 233 233 149 240 243 131 94 87 67 23 55 87 128 136 148 151 162 168 146 156 161 152 156 148 143 144 148 154 156 160
349 349 347 346 343 340 337 332 329 326 324 322 319 315 310 308 305 304 303 299 299 296 295 292 289 291 291 291 290 296 315 306 279 225 233 252 239 209 214 220 214 205 195 195 198 199 201 199 196 202 212 223 212 209 221 211 216 236 245 244 198 244 248 116 157 83 75 340 58 100 130 126 143 156 173 187 167 117 143 152 154 153 151 152 156 160 162 163
350 350 349 347 344 341 338 334 331 328 327 324 320 315 311 309 308 308 305 301 297 294 294 291 290 289 285 285 283 271 247 261 57 116 229 205 164 147 156 196 199 189 190 196 197 199 202 200 197 205 214 225 220 212 221 215 220 240 243 237 228 249 261 132 174 114 191 294 3 341 62 117 157 167 171 188 176 96 108 142 146 153 156 158 160 163 166 166
350 350 347 346 343 341 338 334 332 330 329 327 322 316 312 310 309 311 307 302 296 292 292 290 289 284 279 278 273 247 235 248 251 273 268 182 159 135 111 159 180 177 189 198 198 199 200 201 199 207 213 221 225 216 219 220 220 236 248 239 233 245 252 247 239 217 238 266 268 287 14 195 197 168 161 180 188 138 117 135 142 149 155 160 162 166 170 169
350 349 346 344 342 339 336 333 332 330 329 327 324 320 315 312 311 313 309 302 295 291 290 287 286 277 270 262 260 247 239 245 246 257 268 225 204 231 263 268 173 176 192 202 199 201 200 203 203 207 216 220 227 218 218 223 220 228 246 254 246 243 241 239 237 233 240 249 255 252 245 232 213 209 189 172 180 166 144 142 144 148 155 162 167 170 171 171
351 350 347 345 343 340 336 333 331 329 329 327 324 321 319 317 315 315 308 301 296 291 288 286 280 266 258 246 243 252 248 249 248 248 255 244 238 251 256 264 194 180 195 205 201 204 203 206 206 209 222 225 229 228 219 223 223 223 235 247 248 244 237 230 231 232 236 241 247 241 237 236 213 217 220 180 175 169 159 156 152 153 159 165 170 174 173 174
353 351 349 348 346 343 338 334 331 328 327 325 323 322 321 321 320 315 309 304 298 292 288 282 274 258 249 237 232 249 255 246 234 228 235 242 241 250 249 240 214 191 198 206 203 206 206 208 209 213 230 235 234 235 224 223 224 221 230 242 247 251 246 236 232 232 235 237 241 243 241 240 218 204 205 182 178 170 161 161 159 160 164 166 171 174 175 177
353 352 350 349 349 346 342 338 334 329 326 325 323 321 321 323 323 318 313 308 301 297 288 278 268 257 242 227 227 235 246 227 214 213 220 224 219 238 244 222 212 201 200 207 206 207 208 210 210 214 228 238 242 240 230 228 228 229 229 239 243 247 250 243 238 235 234 237 236 239 243 241 225 212 208 178 175 172 169 167 164 167 168 168 171 173 176 179
352 351 349 349 349 347 344 340 338 332 327 325 323 321 320 322 324 320 316 311 306 301 288 278 265 252 229 225 234 233 232 228 231 221 218 218 209 223 233 212 207 204 201 207 208 207 209 211 212 216 221 226 238 239 234 229 230 239 240 242 240 235 240 235 231 229 227 231 228 231 239 234 223 215 203 172 167 170 174 171 169 174 173 172 171 171 176 179
350 349 348 347 349 347 344 342 340 336 330 326 324 322 319 320 323 320 317 313 310 303 291 284 268 241 214 233 247 246 240 234 245 242 219 215 206 209 214 205 205 206 205 209 209 208 209 212 214 221 223 224 229 229 258 236 226 235 239 244 245 236 234 225 223 222 219 223 219 223 240 229 216 203 194 175 166 173 180 171 172 183 179 176 174 172 175 179
349 348 347 346 348 347 343 341 341 338 335 330 326 324 319 320 320 318 315 311 308 304 295 287 264 216 214 244 257 259 240 230 236 235 210 200 194 195 198 199 203 205 207 212 212 210 210 213 216 224 227 231 240 232 239 237 222 226 233 235 241 243 236 217 212 212 213 216 211 216 237 236 211 180 180 180 170 179 188 169 172 193 184 177 178 176 176 179
349 347 346 346 347 346 343 341 341 339 337 333 329 326 321 320 319 316 315 311 309 306 299 290 249 194 236 264 262 252 239 226 224 220 206 196 187 187 192 194 200 202 205 212 215 215 212 212 215 222 223 226 243 243 228 229 220 218 227 228 225 235 243 219 204 205 212 207 202 213 230 234 219 167 165 175 177 188 193 174 176 194 186 174 181 183 179 179
348 346 345 346 346 346 343 341 341 339 338 336 333 328 324 322 320 316 315 312 305 302 297 303 262 211 256 282 256 238 228 217 218 212 205 200 192 190 190 191 195 196 201 207 212 215 210 211 214 220 222 218 230 239 230 226 219 212 221 231 222 220 234 224 195 199 214 209 197 209 230 234 198 162 165 170 177 193 195 185 182 190 185 172 180 192 187 181
348 345 345 345 346 347 344 341 342 340 339 340 339 335 329 326 325 320 315 309 298 294 269 248 258 237 251 253 231 232 218 212 213 207 205 202 200 192 181 183 187 188 192 195 204 210 204 207 212 215 221 218 215 219 223 221 212 208 212 227 231 222 223 220 194 190 207 216 205 203 219 234 186 162 174 174 179 195 196 196 188 188 185 169 177 197 194 186
348 345 345 344 346 348 344 342 343 341 343 344 345 343 336 336 336 328 315 312 313 292 254 221 206 232 246 229 226 238 216 209 204 201 202 199 200 194 178 181 180 177 182 186 198 202 195 201 209 211 215 216 211 208 216 218 210 209 208 216 231 229 221 215 206 189 193 210 218 212 212 222 210 181 176 180 192 199 195 201 192 189 187 171 180 197 194 192
348 346 345 345 346 348 345 343 343 344 346 346 351 353 347 343 334 326 303 280 245 229 257 200 189 217 310 230 215 221 201 196 192 194 197 195 196 193 183 183 180 178 184 185 190 194 190 194 207 213 210 209 211 210 215 223 221 217 214 216 221 228 228 217 214 201 193 206 217 221 224 220 217 209 191 186 195 203 202 202 192 189 188 180 186 193 192 199
348 345 344 344 345 348 345 343 344 347 352 358 4 360 355 350 329 307 347 290 251 247 274 259 216 238 286 281 211 202 180 179 187 194 195 191 190 190 189 186 183 185 193 191 183 189 193 198 208 212 212 208 210 215 218 226 233 231 223 223 221 225 229 217 217 211 194 210 218 217 230 228 218 220 208 185 187 206 210 201 195 192 184 182 191 192 194 203
347 344 343 343 343 347 347 345 345 350 2 17 13 8 14 3 340 322 331 307 275 259 263 265 251 248 257 258 236 208 205 198 196 199 195 188 187 190 191 188 187 190 199 198 187 189 197 212 215 210 214 214 210 215 220 225 231 236 232 229 225 225 227 214 212 211 192 203 227 221 230 234 225 228 218 183 181 204 212 203 199 199 186 182 191 192 194 203
347 343 343 343 342 346 348 346 348 355 8 23 14 13 16 357 337 319 320 301 288 278 259 257 256 249 248 248 244 229 224 215 199 197 192 185 187 192 188 190 196 193 194 198 191 190 204 220 218 210 213 218 214 212 219 224 227 232 234 234 234 224 226 224 215 217 206 195 229 232 234 237 232 236 234 213 202 199 204 211 206 199 192 186 188 186 192 205
347 344 343 343 341 345 349 345 353 5 5 8 5 8 359 339 332 318 304 287 289 284 260 245 243 239 239 238 231 222 224 219 201 194 188 184 191 195 191 191 201 197 193 200 200 195 207 218 216 212 209 213 219 213 213 222 224 228 228 226 233 222 221 227 215 219 217 199 228 240 238 238 235 234 231 231 229 203 193 209 213 200 189 187 191 187 192 205
349 346 344 345 342 345 350 347 358 8 354 337 347 356 348 333 331 325 306 279 277 281 261 239 230 229 230 226 218 214 219 222 211 194 185 186 192 196 199 196 199 204 198 201 207 209 214 212 206 211 210 209 218 216 211 217 220 225 228 224 229 226 225 230 222 223 219 206 222 241 245 240 235 237 228 227 235 219 194 202 214 209 189 180 187 191 195 205
350 347 344 347 344 343 353 359 357 359 348 334 340 339 338 333 329 328 312 279 261 268 258 230 219 225 223 215 207 208 215 223 219 202 187 190 193 192 203 202 200 210 204 203 210 217 221 212 198 206 210 208 215 216 210 214 219 221 225 228 233 234 233 236 236 234 225 214 216 226 241 243 232 237 238 230 231 223 200 198 211 216 201 183 183 190 194 198
349 348 346 347 345 342 353 6 344 349 350 340 340 335 333 331 326 324 308 278 267 237 196 184 193 204 205 200 193 194 212 222 217 209 192 192 196 195 200 202 204 215 207 203 212 221 223 216 204 204 207 207 213 218 212 212 223 223 216 220 229 240 242 239 239 236 230 230 222 215 226 244 235 231 232 228 231 228 204 192 208 213 210 199 188 189 189 188
348 346 344 348 349 342 344 346 341 348 345 329 336 333 328 325 324 326 292 262 267 185 146 154 175 175 186 188 178 178 209 209 203 210 200 191 196 201 207 203 203 214 208 203 213 216 216 215 208 201 206 209 210 217 212 207 219 228 214 211 218 230 238 238 241 240 235 243 243 231 228 239 239 233 230 221 225 230 205 184 204 208 208 209 196 190 190 186
346 343 342 346 348 341 339 344 342 338 329 327 330 326 323 324 318 315 276 267 260 134 131 133 145 155 173 176 180 192 220 166 185 203 199 193 196 200 213 212 205 210 208 208 214 207 208 214 208 199 204 213 211 213 209 203 216 229 221 219 215 220 228 232 237 241 238 240 244 238 235 242 242 236 243 234 227 224 198 183 203 206 205 211 205 196 191 190
345 341 340 342 347 348 342 344 337 319 323 325 324 323 321 314 303 285 250 264 227 125 126 139 141 164 173 171 191 209 221 203 200 194 188 193 199 201 216 218 213 214 212 218 224 211 205 210 214 207 204 214 213 210 206 205 216 223 223 226 218 218 225 226 231 235 236 239 238 233 232 241 244 229 230 238 235 221 199 197 207 205 202 207 215 207 191 191
344 340 339 340 347 349 339 334 320 312 323 324 323 325 316 298 279 245 229 246 251 85 103 150 152 170 180 180 198 212 218 219 220 181 183 190 197 204 218 218 221 226 216 221 227 227 216 203 213 219 208 213 216 207 207 212 214 213 219 220 209 215 225 226 229 230 235 239 235 232 233 239 246 233 221 226 228 219 210 206 199 200 202 200 214 216 195 190
344 339 339 340 342 344 336 321 315 319 323 325 326 321 302 274 249 241 232 264 308 18 78 152 145 167 190 201 203 203 213 218 197 174 185 188 190 202 211 211 220 226 218 219 220 226 226 204 205 217 207 206 217 211 204 209 210 207 212 207 196 206 213 220 220 219 234 236 229 228 232 240 243 234 227 230 227 221 216 207 192 194 200 196 208 215 198 190
344 340 337 337 339 345 332 314 321 325 323 324 322 312 289 252 233 234 248 283 301 13 9 354 359 333 248 248 239 208 205 212 201 186 190 190 188 197 203 200 199 205 213 213 206 214 222 215 204 203 201 201 212 213 196 198 204 204 207 201 198 200 196 208 209 208 229 234 228 225 222 232 244 237 234 238 235 225 219 210 199 199 198 191 201 211 199 190
346 341 339 346 350 341 318 317 323 321 321 322 311 295 274 254 241 241 257 269 344 11 343 328 333 320 291 270 260 227 206 204 203 198 195 195 196 198 204 207 201 204 214 206 202 204 210 218 210 196 194 199 207 211 192 191 197 198 203 198 197 200 194 203 209 212 228 228 224 225 219 228 242 236 227 232 237 232 221 208 205 210 204 189 192 206 202 195
347 345 348 358 359 336 318 322 322 316 318 315 301 280 253 250 257 262 262 291 5 356 330 326 325 305 281 260 250 229 209 205 202 200 196 196 203 202 202 209 208 210 218 207 204 206 203 211 208 199 189 191 202 214 205 191 193 198 203 201 204 212 208 206 210 213 225 225 216 215 219 229 235 234 225 224 226 228 227 214 205 210 207 187 182 197 210 206
348 349 345 345 348 337 328 324 319 317 316 304 291 271 253 254 256 254 274 346 352 340 330 322 308 287 273 256 246 234 225 214 201 200 203 201 206 206 200 205 208 208 215 212 203 206 211 214 204 200 196 190 196 209 210 199 193 195 200 206 209 215 221 224 224 222 227 234 217 205 214 230 233 239 232 224 221 215 217 219 205 202 206 190 175 184 209 214
350 347 335 328 342 339 334 326 320 316 309 297 280 261 256 265 270 270 348 356 337 333 332 315 288 272 262 243 236 223 221 235 209 200 206 208 210 212 206 201 205 208 212 214 206 205 214 219 202 195 196 198 195 198 206 207 195 185 198 210 209 212 228 239 233 232 234 238 228 206 209 217 225 228 208 206 225 213 204 212 207 196 201 194 176 179 199 214
1 343 319 318 342 342 336 326 321 311 299 288 273 275 275 277 297 325 355 346 331 327 324 309 291 298 279 243 219 198 194 222 222 209 207 207 207 214 215 204 200 209 216 219 223 216 214 222 204 192 192 196 192 195 205 211 208 194 195 204 205 212 228 240 238 228 223 231 232 219 214 208 211 222 203 199 213 214 204 206 205 197 198 198 187 182 191 207
357 325 305 334 340 340 337 327 321 306 292 283 270 272 280 290 319 340 340 335 331 321 310 296 295 311 298 277 273 222 201 209 214 218 212 203 193 213 230 208 187 207 220 222 230 227 220 228 203 188 188 186 185 195 205 208 214 218 204 195 199 210 212 214 230 228 221 224 225 226 226 219 211 214 212 203 203 208 203 200 204 203 200 204 200 189 189 199
344 316 328 15 343 338 338 326 316 300 286 287 280 277 306 328 343 343 332 326 323 314 303 292 293 301 292 292 311 308 287 279 265 251 223 205 189 45 16 270 159 39 245 229 233 230 221 232 207 179 179 180 180 196 204 197 205 219 217 200 203 217 211 203 216 226 226 228 224 222 223 225 224 217 215 204 192 200 202 195 204 206 194 195 199 192 189 196
330 311 12 12 347 342 340 321 306 297 294 305 302 309 333 340 342 335 326 321 317 311 297 292 298 298 291 302 308 293 281 292 296 281 245 196 107 66 35 6 318 336 318 251 230 228 220 227 221 171 169 184 190 199 205 194 192 205 213 204 199 206 212 211 212 214 226 233 230 230 225 216 208 204 208 198 179 191 201 197 201 210 201 193 193 192 189 193
319 307 358 359 347 346 339 323 312 319 316 326 320 316 326 331 329 324 324 328 321 306 293 289 289 287 288 302 306 301 295 278 276 279 263 59 60 46 24 2 331 306 292 245 216 222 224 226 226 182 172 199 202 196 204 203 194 196 206 206 199 198 204 210 209 205 218 234 234 243 248 204 97 113 185 198 187 182 194 201 195 202 211 204 195 193 190 192
326 324 339 346 346 345 337 325 347 341 318 340 330 317 323 322 315 316 324 330 320 306 300 290 283 286 287 285 282 286 294 281 268 270 268 284 50 27 6 350 327 302 273 233 211 214 238 268 237 205 188 207 207 196 202 208 202 197 205 210 203 201 204 209 208 198 205 224 231 243 249 152 91 95 120 151 183 179 181 200 198 191 202 206 199 195 191 194
335 328 331 343 344 340 336 328 346 339 334 346 328 317 326 317 312 325 327 326 320 311 309 297 294 303 304 301 290 277 285 293 275 263 271 300 51 36 358 344 334 316 277 231 210 200 195 265 241 221 198 202 204 196 196 206 207 200 204 210 209 208 207 211 215 201 200 212 211 218 234 186 110 109 114 105 158 212 193 194 203 197 190 191 197 195 187 187
327 318 328 346 342 336 339 344 344 339 340 339 327 325 333 322 326 339 331 335 338 320 312 308 309 314 310 312 308 289 283 287 272 264 276 299 28 43 358 341 340 336 346 348 290 236 218 219 221 224 206 192 194 192 190 201 209 206 203 205 210 212 208 209 215 212 213 211 202 205 222 188 120 118 145 177 195 215 200 180 184 190 183 176 178 171 154 160
326 325 335 343 338 335 348 352 338 331 335 334 327 329 330 323 339 345 332 336 343 327 318 316 320 321 311 310 308 289 271 263 271 289 305 300 306 35 9 333 334 348 2 345 325 314 269 217 209 217 209 190 189 195 190 193 202 208 205 202 205 211 210 206 208 215 216 209 209 216 204 132 121 130 156 185 197 197 175 164 167 174 172 147 131 125 124 148
325 331 340 340 335 330 341 342 330 326 334 333 326 328 324 319 331 340 335 342 347 333 322 318 324 323 317 319 313 292 274 269 268 273 291 296 302 346 359 323 328 350 341 325 313 302 277 230 220 226 225 210 187 251 230 201 200 205 207 202 202 208 211 207 208 215 212 207 214 225 222 152 137 146 164 168 176 174 153 142 144 152 152 113 96 106 145 169
324 329 341 339 330 326 332 334 333 330 325 320 317 318 317 317 322 328 339 343 337 336 334 330 333 328 330 333 320 302 299 293 279 273 286 301 316 321 304 288 328 349 326 315 310 298 278 240 225 230 236 246 318 341 323 239 209 207 207 205 202 204 208 209 212 210 201 211 213 201 222 228 145 140 173 170 158 153 150 145 129 127 135 122 107 118 156 162
328 324 331 330 315 316 323 324 324 317 306 305 310 311 308 313 319 323 340 331 323 350 8 327 322 336 336 332 319 305 307 307 309 333 345 345 329 312 273 215 166 356 326 314 330 320 278 241 229 229 234 241 250 298 311 271 226 223 219 211 204 202 206 208 214 210 201 218 224 180 197 226 200 140 157 156 141 137 145 140 121 126 144 130 111 127 164 159
324 315 321 324 310 305 306 306 305 300 297 302 304 296 298 309 319 324 335 322 317 7 12 302 308 348 338 323 315 303 303 311 327 347 350 340 317 308 302 176 35 358 339 326 338 333 282 243 251 237 231 236 233 242 273 264 248 262 243 218 206 204 206 207 211 212 207 216 224 190 187 210 220 196 158 146 150 165 163 126 111 147 167 116 90 204 202 168
321 316 317 317 307 300 300 301 297 294 294 290 276 276 298 306 317 328 329 319 318 353 344 301 312 331 325 319 309 292 294 311 313 316 324 320 310 316 346 360 351 345 335 325 345 338 290 277 325 280 242 237 228 222 242 254 255 260 246 224 212 208 206 206 208 210 210 213 214 208 195 196 211 224 208 173 176 215 253 267 258 239 259 308 266 250 253 211
310 309 308 309 306 301 301 301 294 291 291 282 283 315 320 308 315 324 319 317 319 317 310 311 316 314 306 306 300 289 290 296 291 290 296 299 300 307 317 320 322 326 322 319 341 331 298 300 303 260 241 236 225 215 222 237 248 244 236 228 223 218 210 206 206 207 210 213 213 213 214 204 192 210 233 237 233 254 264 259 260 267 276 279 270 267 262 249
307 304 301 300 297 295 297 297 291 289 295 304 304 307 303 302 309 313 310 309 296 288 295 306 308 303 296 293 292 290 291 290 286 287 287 283 285 286 283 284 291 296 300 308 316 313 308 312 267 226 231 233 221 214 216 225 237 236 228 221 222 225 221 212 207 212 217 218 218 216 215 213 191 196 225 237 233 238 249 255 263 274 282 284 284 280 268 255
Height
1522 1520 1519 1518 1516 1515 1513 1512 1510 1509 1508 1507 1505 1504 1503 1501 1500 1499 1498 1497 1496 1495 1495 1495 1494 1494 1493 1493 1492 1492 1491 1490 1490 1489 1486 1483 1484 1485 1485 1487 1488 1489 1490 1492 1494 1494 1495 1496 1497 1498 1499 1497 1497 1494 1492 1492 1492 1493 1496 1500 1503 1509 1507 1483 1473 1476 1474 1474 1470 1469 1470 1472 1477 1479 1481 1483 1483 1486 1488 1490 1493 1496 1496 1497 1499 1504 1510 1514
1521 1520 1519 1517 1516 1514 1512 1511 1509 1508 1506 1505 1504 1502 1501 1499 1498 1497 1496 1495 1494 1493 1493 1493 1493 1493 1492 1492 1491 1490 1489 1488 1487 1484 1481 1481 1483 1483 1483 1485 1486 1487 1488 1490 1492 1493 1493 1494 1495 1497 1497 1495 1493 1491 1490 1489 1491 1492 1492 1497 1503 1508 1500 1478 1469 1466 1465 1470 1468 1468 1471 1472 1477 1478 1480 1482 1482 1485 1487 1490 1493 1496 1498 1500 1503 1506 1510 1515
1521 1520 1518 1517 1515 1513 1512 1509 1508 1506 1505 1504 1502 1501 1499 1498 1497 1496 1495 1494 1492 1492 1491 1491 1491 1491 1491 1490 1490 1490 1488 1487 1484 1478 1476 1478 1480 1480 1482 1484 1485 1486 1487 1489 1491 1492 1493 1493 1494 1495 1495 1492 1490 1489 1487 1487 1489 1487 1488 1497 1502 1499 1486 1470 1467 1466 1467 1467 1465 1467 1470 1475 1479 1478 1480 1480 1482 1485 1486 1489 1491 1495 1499 1502 1506 1508 1511 1515
1521 1519 1518 1516 1514 1512 1510 1508 1507 1505 1503 1502 1500 1499 1497 1496 1495 1494 1493 1492 1491 1490 1489 1489 1489 1490 1490 1489 1489 1489 1488 1486 1479 1473 1473 1475 1476 1478 1479 1481 1483 1485 1486 1489 1491 1492 1492 1493 1494 1494 1493 1489 1486 1486 1485 1485 1486 1482 1483 1489 1492 1491 1481 1470 1467 1468 1470 1468 1467 1468 1469 1475 1478 1477 1479 1478 1482 1485 1483 1486 1490 1494 1499 1502 1507 1510 1512 1514
1521 1519 1517 1516 1514 1512 1510 1507 1505 1503 1502 1500 1499 1497 1495 1494 1493 1492 1491 1490 1489 1488 1487 1487 1487 1488 1488 1488 1489 1488 1490 1486 1473 1470 1472 1472 1473 1475 1476 1478 1480 1483 1485 1488 1490 1491 1491 1491 1492 1492 1491 1486 1483 1484 1482 1481 1482 1481 1478 1476 1481 1483 1477 1471 1469 1469 1472 1470 1469 1469 1469 1473 1474 1476 1478 1477 1482 1484 1481 1484 1489 1492 1497 1501 1505 1509 1512 1513
1520 1519 1517 1515 1513 1511 1509 1506 1504 1502 1501 1499 1497 1495 1493 1491 1490 1490 1489 1488 1487 1486 1485 1485 1485 1487 1486 1487 1487 1487 1489 1480 1470 1470 1471 1471 1473 1473 1475 1476 1477 1481 1484 1487 1488 1489 1489 1489 1490 1489 1487 1483 1480 1481 1480 1479 1480 1482 1476 1471 1475 1474 1470 1470 1469 1471 1473 1471 1470 1469 1470 1472 1473 1475 1476 1477 1480 1481 1481 1484 1488 1492 1497 1500 1503 1507 1510 1512
1520 1518 1516 1514 1512 1510 1508 1505 1503 1501 1499 1498 1495 1493 1491 1489 1488 1488 1486 1485 1485 1484 1483 1483 1484 1484 1485 1486 1485 1486 1485 1474 1469 1472 1472 1472 1473 1472 1474 1475 1476 1479 1483 1486 1486 1486 1487 1487 1487 1485 1484 1482 1478 1477 1478 1478 1478 1481 1477 1470 1471 1470 1468 1469 1470 1472 1473 1472 1471 1471 1471 1471 1472 1475 1475 1477 1479 1481 1483 1484 1487 1492 1497 1500 1502 1505 1508 1511
1519 1517 1515 1513 1511 1509 1507 1504 1502 1500 1498 1496 1493 1491 1489 1487 1487 1486 1484 1483 1482 1482 1481 1481 1482 1482 1483 1484 1484 1484 1479 1470 1470 1472 1472 1473 1472 1472 1474 1475 1476 1478 1481 1483 1483 1484 1485 1484 1484 1483 1482 1479 1476 1474 1475 1476 1476 1478 1477 1471 1469 1469 1469 1469 1471 1472 1472 1471 1471 1471 1471 1470 1471 1473 1473 1475 1478 1480 1482 1485 1487 1492 1497 1500 1503 1505 1507 1511
1518 1516 1514 1512 1509 1507 1505 1503 1501 1498 1496 1494 1492 1489 1487 1486 1485 1484 1482 1481 1480 1480 1479 1479 1480 1480 1481 1481 1483 1480 1471 1468 1471 1471 1471 1472 1471 1471 1473 1474 1476 1477 1480 1481 1482 1483 1483 1482 1482 1482 1479 1476 1474 1472 1471 1476 1478 1475 1475 1472 1469 1468 1468 1469 1470 1470 1471 1470 1469 1470 1470 1469 1469 1472 1473 1473 1477 1479 1481 1484 1487 1491 1495 1498 1502 1504 1506 1509
1517 1515 1513 1511 1508 1506 1503 1501 1499 1496 1494 1492 1490 1488 1485 1484 1483 1481 1480 1479 1478 1477 1477 1478 1477 1478 1479 1479 1482 1476 1467 1468 1471 1470 1470 1471 1471 1470 1471 1474 1475 1476 1478 1479 1480 1480 1480 1481 1481 1481 1480 1475 1472 1470 1469 1473 1475 1471 1472 1471 1468 1468 1467 1468 1468 1468 1469 1468 1468 1469 1470 1468 1466 1471 1474 1472 1474 1478 1480 1483 1486 1489 1493 1495 1499 1502 1505 1508
1517 1515 1512 1510 1508 1505 1502 1500 1497 1495 1493 1490 1489 1486 1484 1482 1481 1479 1478 1477 1476 1476 1476 1475 1476 1476 1476 1478 1477 1471 1466 1467 1468 1468 1469 1469 1470 1469 1469 1473 1473 1475 1477 1477 1478 1478 1479 1480 1481 1481 1479 1475 1473 1470 1468 1470 1470 1469 1471 1472 1470 1468 1468 1467 1466 1467 1467 1467 1466 1467 1468 1466 1465 1470 1470 1468 1472 1476 1479 1482 1485 1488 1490 1493 1496 1500 1503 1506
1517 1515 1512 1509 1507 1504 1501 1499 1496 1493 1491 1489 1487 1484 1482 1480 1479 1478 1476 1476 1475 1475 1474 1473 1474 1474 1475 1476 1470 1464 1465 1467 1467 1467 1467 1467 1468 1468 1468 1471 1472 1473 1475 1476 1476 1477 1479 1479 1480 1479 1476 1475 1474 1472 1469 1468 1469 1468 1470 1474 1472 1468 1468 1465 1463 1465 1465 1466 1464 1465 1472 1472 1467 1467 1465 1466 1470 1473 1477 1480 1484 1487 1490 1492 1494 1497 1501 1504
1517 1514 1511 1509 1506 1503 1500 1497 1495 1492 1489 1487 1485 1483 1481 1479 1478 1476 1475 1474 1473 1473 1472 1472 1472 1472 1474 1470 1461 1460 1463 1465 1466 1466 1466 1466 1466 1467 1468 1470 1471 1473 1474 1474 1475 1476 1478 1478 1478 1477 1475 1473 1471 1470 1470 1466 1468 1469 1469 1473 1474 1472 1469 1461 1459 1462 1462 1464 1461 1466 1483 1480 1465 1462 1462 1465 1469 1472 1475 1478 1484 1487 1488 1491 1493 1495 1498 1501
1516 1514 1511 1508 1506 1503 1500 1497 1494 1490 1488 1486 1483 1481 1479 1477 1476 1474 1473 1472 1472 1472 1471 1471 1470 1471 1472 1464 1458 1459 1459 1462 1464 1463 1465 1465 1465 1466 1467 1469 1470 1472 1473 1473 1474 1475 1476 1477 1478 1476 1474 1472 1468 1467 1469 1467 1467 1469 1471 1472 1474 1477 1470 1454 1452 1458 1461 1462 1457 1465 1485 1478 1460 1457 1460 1464 1467 1471 1473 1476 1484 1487 1486 1490 1493 1494 1495 1497
1516 1513 1511 1508 1505 1503 1499 1496 1493 1489 1487 1484 1482 1480 1478 1476 1474 1472 1472 1471 1470 1470 1470 1470 1469 1471 1469 1460 1456 1457 1456 1459 1461 1461 1463 1464 1464 1465 1465 1467 1469 1470 1472 1473 1473 1474 1475 1475 1476 1474 1472 1472 1470 1468 1470 1470 1466 1467 1476 1477 1472 1474 1468 1450 1446 1451 1458 1459 1454 1465 1481 1474 1459 1455 1457 1463 1467 1469 1471 1474 1481 1484 1484 1489 1493 1495 1495 1495
1516 1513 1510 1507 1505 1502 1498 1495 1492 1488 1485 1483 1481 1478 1476 1475 1472 1471 1470 1469 1469 1469 1469 1470 1469 1470 1468 1458 1453 1453 1454 1455 1456 1459 1461 1462 1463 1463 1464 1466 1467 1469 1470 1471 1472 1473 1473 1473 1473 1472 1470 1471 1471 1471 1473 1475 1470 1466 1473 1476 1469 1468 1467 1455 1446 1445 1450 1453 1453 1462 1473 1469 1459 1455 1456 1461 1465 1467 1469 1471 1476 1479 1481 1487 1494 1497 1496 1495
1515 1512 1509 1507 1504 1501 1498 1494 1491 1488 1484 1482 1479 1477 1475 1473 1471 1469 1468 1468 1468 1467 1469 1469 1469 1471 1463 1453 1451 1450 1450 1452 1454 1457 1458 1460 1462 1461 1463 1464 1465 1468 1469 1471 1472 1471 1471 1471 1471 1471 1468 1467 1466 1471 1478 1479 1474 1467 1467 1470 1464 1460 1462 1460 1452 1444 1445 1452 1455 1457 1464 1464 1456 1453 1456 1459 1463 1465 1466 1469 1472 1475 1479 1485 1492 1496 1496 1495
1514 1511 1508 1506 1503 1500 1497 1493 1490 1487 1484 1481 1478 1476 1474 1472 1470 1468 1466 1466 1466 1468 1468 1467 1470 1470 1455 1446 1448 1447 1446 1449 1451 1454 1456 1458 1460 1460 1462 1463 1464 1466 1467 1469 1469 1468 1469 1468 1468 1469 1467 1466 1463 1466 1475 1472 1466 1465 1465 1467 1464 1457 1456 1457 1454 1445 1444 1453 1457 1457 1461 1460 1454 1451 1454 1457 1461 1462 1463 1466 1469 1472 1476 1482 1489 1492 1493 1495
1513 1510 1507 1505 1502 1500 1496 1493 1490 1486 1483 1480 1477 1475 1472 1471 1468 1466 1467 1468 1467 1465 1462 1461 1463 1458 1446 1442 1445 1445 1445 1447 1448 1451 1454 1455 1458 1459 1460 1462 1462 1464 1464 1465 1466 1464 1465 1466 1468 1468 1464 1462 1459 1458 1464 1460 1454 1455 1455 1458 1462 1459 1453 1449 1447 1440 1440 1453 1457 1458 1460 1457 1453 1451 1451 1453 1457 1460 1462 1463 1466 1470 1474 1479 1485 1487 1490 1493
1512 1509 1506 1503 1501 1499 1496 1493 1489 1486 1484 1480 1477 1474 1473 1473 1468 1464 1466 1468 1465 1460 1454 1454 1456 1449 1443 1443 1444 1445 1445 1446 1447 1449 1451 1453 1456 1457 1458 1459 1460 1461 1460 1459 1461 1460 1462 1466 1464 1460 1457 1455 1454 1453 1454 1453 1449 1448 1450 1452 1454 1456 1451 1444 1444 1437 1435 1451 1455 1452 1456 1452 1450 1448 1443 1447 1454 1457 1459 1460 1463 1467 1471 1477 1481 1483 1487 1492
1512 1509 1506 1503 1500 1498 1496 1492 1489 1487 1485 1481 1480 1479 1479 1479 1475 1470 1468 1462 1457 1457 1452 1449 1451 1447 1443 1444 1443 1444 1444 1444 1445 1446 1448 1451 1453 1455 1454 1454 1455 1457 1455 1452 1455 1457 1460 1462 1455 1451 1450 1448 1449 1450 1451 1452 1450 1449 1449 1450 1450 1450 1448 1440 1441 1438 1434 1450 1455 1449 1453 1451 1445 1443 1437 1440 1450 1454 1456 1457 1460 1463 1467 1474 1478 1480 1486 1492
1512 1508 1505 1503 1499 1497 1495 1492 1490 1488 1485 1484 1484 1484 1484 1484 1482 1480 1476 1462 1449 1449 1449 1445 1445 1443 1440 1441 1442 1443 1443 1440 1441 1443 1445 1448 1450 1450 1448 1449 1451 1451 1450 1449 1452 1457 1458 1454 1447 1444 1444 1444 1446 1447 1450 1451 1451 1451 1449 1451 1452 1446 1444 1440 1436 1434 1434 1448 1456 1451 1454 1452 1442 1439 1436 1436 1442 1447 1452 1454 1457 1460 1465 1471 1475 1479 1484 1490
1511 1507 1505 1502 1499 1497 1495 1492 1490 1488 1486 1487 1487 1486 1485 1484 1483 1481 1479 1468 1447 1438 1440 1438 1436 1435 1435 1437 1438 1441 1440 1436 1435 1437 1440 1443 1443 1444 1443 1444 1446 1446 1447 1447 1447 1453 1454 1446 1440 1439 1440 1444 1447 1445 1448 1451 1451 1451 1449 1453 1453 1443 1447 1449 1439 1434 1434 1442 1451 1452 1452 1449 1442 1439 1438 1436 1435 1437 1446 1452 1453 1456 1462 1467 1472 1475 1480 1485
1510 1507 1504 1501 1498 1496 1494 1492 1490 1489 1488 1488 1488 1487 1486 1484 1482 1480 1477 1468 1448 1431 1428 1427 1427 1428 1427 1430 1434 1436 1436 1433 1431 1431 1434 1437 1438 1440 1439 1438 1442 1443 1442 1441 1441 1443 1442 1435 1433 1436 1438 1442 1447 1444 1446 1452 1452 1450 1447 1449 1450 1443 1444 1444 1437 1434 1434 1437 1444 1452 1458 1454 1445 1444 1440 1434 1432 1433 1440 1447 1450 1452 1457 1465 1471 1474 1477 1481
1510 1507 1504 1501 1498 1495 1493 1492 1490 1490 1489 1488 1489 1487 1485 1484 1481 1480 1476 1465 1445 1424 1417 1418 1420 1421 1421 1426 1430 1430 1432 1431 1427 1428 1430 1432 1433 1435 1436 1435 1438 1440 1437 1437 1439 1439 1435 1428 1428 1435 1437 1439 1445 1444 1444 1448 1451 1450 1445 1442 1444 1443 1440 1439 1437 1437 1443 1449 1444 1450 1471 1465 1446 1444 1443 1435 1434 1434 1435 1441 1446 1448 1451 1459 1466 1470 1474 1477
1509 1506 1503 1501 1498 1494 1493 1492 1491 1490 1488 1489 1489 1485 1485 1484 1480 1480 1476 1464 1439 1414 1410 1413 1412 1413 1416 1420 1423 1428 1432 1426 1423 1426 1426 1428 1431 1431 1433 1432 1431 1432 1431 1432 1436 1434 1429 1423 1424 1431 1436 1438 1442 1442 1439 1441 1449 1450 1441 1437 1441 1442 1441 1441 1441 1442 1451 1457 1442 1441 1465 1468 1449 1443 1439 1434 1435 1433 1431 1437 1442 1445 1448 1451 1457 1463 1467 1470
1508 1505 1502 1500 1498 1495 1493 1492 1491 1490 1489 1490 1487 1485 1486 1482 1480 1480 1475 1462 1430 1402 1404 1411 1409 1409 1412 1414 1418 1425 1426 1417 1418 1423 1420 1424 1428 1427 1429 1427 1426 1428 1423 1427 1435 1429 1423 1423 1424 1428 1433 1436 1439 1440 1434 1435 1447 1447 1433 1432 1440 1443 1444 1444 1444 1445 1446 1449 1443 1436 1446 1459 1454 1441 1429 1428 1434 1432 1429 1436 1439 1441 1445 1448 1450 1455 1461 1464
1508 1505 1502 1500 1498 1495 1493 1492 1491 1490 1491 1490 1486 1486 1485 1481 1482 1479 1476 1461 1419 1392 1401 1408 1409 1410 1410 1414 1416 1415 1411 1406 1411 1415 1416 1422 1423 1423 1424 1420 1422 1424 1418 1423 1432 1422 1417 1422 1423 1425 1433 1434 1432 1432 1428 1432 1443 1439 1428 1429 1434 1438 1442 1442 1445 1447 1444 1450 1457 1444 1438 1453 1454 1438 1428 1427 1431 1432 1431 1436 1439 1438 1441 1446 1448 1451 1456 1460
1507 1504 1501 1499 1497 1495 1493 1491 1491 1491 1491 1488 1486 1486 1482 1483 1483 1476 1476 1458 1408 1389 1402 1405 1408 1412 1410 1414 1415 1410 1407 1403 1404 1405 1411 1418 1418 1418 1420 1416 1417 1420 1416 1417 1422 1417 1412 1416 1416 1419 1428 1428 1424 1422 1422 1430 1436 1432 1428 1429 1430 1434 1438 1441 1445 1447 1448 1456 1461 1448 1441 1452 1453 1440 1435 1435 1433 1432 1430 1432 1434 1435 1439 1445 1448 1448 1449 1453
1506 1503 1501 1498 1496 1495 1493 1492 1493 1492 1490 1487 1485 1484 1481 1483 1480 1474 1474 1447 1402 1394 1404 1403 1407 1409 1409 1412 1412 1409 1407 1402 1400 1402 1407 1412 1415 1417 1417 1417 1416 1416 1416 1414 1415 1412 1405 1408 1411 1411 1417 1419 1417 1418 1419 1424 1427 1427 1430 1432 1437 1440 1441 1443 1443 1446 1456 1459 1453 1445 1438 1446 1452 1440 1431 1431 1427 1424 1426 1429 1430 1433 1437 1442 1448 1447 1444 1447
1505 1502 1500 1498 1495 1494 1494 1494 1493 1490 1489 1487 1484 1483 1482 1479 1474 1472 1459 1424 1400 1403 1404 1403 1406 1405 1406 1408 1407 1407 1406 1402 1399 1402 1406 1407 1412 1416 1415 1417 1417 1417 1419 1415 1414 1411 1405 1407 1409 1406 1408 1412 1416 1418 1417 1418 1420 1426 1432 1436 1446 1450 1449 1452 1450 1452 1464 1460 1446 1439 1435 1442 1449 1438 1425 1419 1414 1412 1417 1422 1426 1430 1433 1437 1445 1446 1442 1444
1504 1501 1499 1497 1495 1494 1494 1493 1491 1489 1488 1486 1484 1482 1479 1474 1470 1465 1443 1414 1411 1417 1411 1410 1411 1407 1407 1406 1402 1402 1402 1402 1399 1399 1402 1402 1406 1409 1408 1408 1410 1417 1420 1414 1413 1414 1409 1406 1403 1404 1405 1408 1417 1420 1419 1419 1420 1427 1432 1437 1451 1457 1460 1466 1461 1457 1460 1452 1438 1433 1435 1441 1437 1426 1420 1414 1408 1406 1406 1410 1416 1421 1425 1431 1441 1442 1439 1440
1503 1500 1498 1497 1495 1494 1495 1493 1490 1490 1487 1486 1485 1480 1476 1475 1466 1452 1434 1420 1424 1426 1419 1418 1417 1414 1413 1409 1404 1398 1397 1399 1397 1396 1398 1399 1402 1403 1402 1400 1399 1407 1411 1408 1412 1414 1413 1408 1400 1403 1406 1404 1412 1418 1422 1423 1422 1427 1430 1435 1448 1454 1464 1473 1463 1455 1453 1444 1433 1427 1431 1438 1430 1418 1413 1410 1406 1402 1400 1404 1409 1412 1415 1423 1434 1437 1436 1437
1502 1499 1497 1495 1494 1495 1495 1493 1491 1490 1488 1486 1483 1476 1474 1473 1460 1443 1432 1426 1429 1430 1426 1424 1421 1417 1412 1408 1402 1393 1393 1395 1392 1393 1395 1396 1400 1400 1399 1399 1394 1397 1401 1403 1406 1407 1414 1413 1399 1398 1402 1401 1406 1409 1411 1415 1419 1423 1420 1426 1439 1439 1448 1459 1453 1450 1450 1439 1431 1428 1431 1435 1430 1416 1402 1398 1399 1398 1398 1400 1403 1407 1409 1416 1426 1432 1434 1435
1501 1498 1497 1495 1496 1496 1494 1493 1491 1489 1488 1485 1480 1474 1470 1465 1452 1439 1434 1434 1437 1437 1433 1428 1423 1417 1409 1403 1396 1387 1387 1390 1387 1390 1393 1392 1394 1392 1392 1393 1391 1392 1398 1401 1399 1396 1405 1404 1389 1388 1392 1394 1403 1402 1399 1407 1418 1419 1414 1423 1431 1424 1425 1434 1433 1431 1433 1433 1429 1427 1427 1421 1413 1404 1393 1393 1395 1394 1399 1399 1399 1405 1407 1410 1420 1428 1432 1432
1500 1498 1498 1497 1497 1496 1493 1492 1490 1489 1488 1484 1478 1472 1463 1453 1442 1436 1440 1446 1447 1443 1440 1431 1419 1414 1408 1399 1393 1388 1387 1388 1385 1387 1389 1388 1388 1386 1384 1386 1386 1387 1390 1393 1391 1390 1399 1397 1381 1383 1389 1388 1396 1399 1394 1402 1413 1414 1417 1421 1417 1409 1414 1426 1430 1420 1423 1436 1428 1417 1421 1416 1410 1406 1396 1396 1399 1394 1397 1399 1398 1403 1406 1408 1415 1422 1428 1429
1499 1498 1498 1497 1496 1494 1492 1491 1489 1488 1487 1482 1479 1470 1457 1448 1442 1440 1447 1453 1452 1448 1448 1440 1424 1417 1411 1397 1389 1388 1388 1389 1386 1384 1386 1386 1385 1382 1379 1378 1379 1381 1381 1383 1384 1380 1388 1393 1378 1377 1390 1388 1387 1395 1394 1392 1398 1408 1417 1413 1407 1410 1413 1421 1433 1430 1432 1444 1430 1413 1418 1420 1422 1420 1402 1398 1405 1399 1395 1397 1397 1400 1404 1406 1410 1416 1423 1425
1499 1498 1497 1496 1495 1493 1491 1490 1489 1488 1485 1481 1480 1470 1458 1453 1450 1450 1454 1457 1457 1454 1452 1447 1433 1424 1418 1404 1393 1391 1392 1393 1388 1385 1385 1382 1382 1381 1379 1377 1378 1379 1376 1378 1382 1376 1379 1390 1378 1371 1385 1388 1384 1395 1401 1393 1390 1396 1402 1400 1405 1421 1424 1423 1433 1436 1437 1444 1434 1419 1416 1415 1417 1416 1403 1399 1403 1400 1395 1395 1396 1398 1400 1402 1405 1410 1416 1420
1501 1498 1495 1495 1495 1492 1490 1489 1488 1486 1483 1481 1479 1470 1462 1460 1459 1460 1461 1461 1460 1458 1454 1448 1439 1432 1426 1415 1408 1402 1400 1398 1393 1390 1384 1378 1381 1385 1385 1385 1384 1383 1380 1379 1384 1378 1376 1387 1382 1368 1375 1386 1388 1395 1401 1398 1393 1392 1394 1394 1400 1410 1416 1419 1423 1425 1430 1436 1433 1425 1421 1413 1404 1396 1394 1395 1395 1395 1396 1396 1396 1394 1394 1398 1401 1404 1410 1415
1504 1498 1493 1494 1494 1491 1489 1488 1486 1484 1482 1481 1478 1472 1468 1467 1466 1466 1466 1464 1461 1460 1458 1451 1446 1442 1432 1424 1420 1412 1407 1406 1402 1396 1384 1375 1382 1390 1392 1394 1391 1388 1386 1383 1384 1380 1375 1383 1384 1373 1374 1385 1390 1388 1387 1391 1394 1397 1400 1400 1401 1403 1404 1409 1412 1412 1418 1426 1427 1425 1422 1407 1387 1378 1383 1387 1387 1389 1391 1393 1395 1392 1390 1394 1398 1401 1406 1411
1504 1497 1492 1494 1493 1490 1488 1486 1483 1482 1482 1482 1479 1475 1473 1472 1471 1470 1469 1468 1466 1463 1461 1455 1450 1447 1439 1435 1434 1426 1418 1413 1405 1399 1389 1381 1390 1398 1398 1400 1398 1393 1391 1388 1385 1380 1377 1382 1382 1378 1381 1385 1381 1376 1375 1379 1383 1391 1396 1395 1396 1400 1404 1414 1418 1410 1409 1416 1418 1421 1421 1403 1380 1373 1379 1382 1383 1385 1385 1387 1390 1390 1390 1392 1394 1398 1403 1407
1503 1497 1494 1495 1493 1490 1487 1484 1481 1480 1480 1480 1479 1477 1476 1475 1474 1472 1470 1471 1471 1467 1464 1458 1452 1448 1443 1439 1437 1433 1428 1419 1406 1400 1392 1387 1396 1404 1403 1404 1400 1395 1392 1389 1384 1379 1379 1383 1380 1376 1378 1379 1373 1368 1370 1372 1373 1381 1388 1386 1387 1393 1398 1411 1420 1412 1409 1412 1408 1412 1420 1405 1381 1376 1380 1380 1380 1381 1383 1385 1386 1387 1389 1390 1391 1395 1400 1404
1504 1499 1496 1495 1494 1491 1487 1483 1481 1479 1478 1478 1478 1476 1476 1475 1473 1472 1471 1472 1471 1470 1468 1463 1457 1455 1451 1445 1439 1434 1432 1426 1415 1405 1397 1393 1400 1406 1407 1406 1402 1396 1392 1389 1384 1379 1382 1388 1386 1378 1372 1369 1366 1364 1365 1368 1371 1378 1383 1380 1382 1387 1388 1395 1401 1400 1406 1411 1409 1417 1425 1407 1384 1379 1381 1382 1382 1382 1382 1384 1385 1386 1387 1388 1391 1392 1396 1401
1505 1499 1496 1496 1494 1491 1487 1486 1484 1481 1479 1478 1477 1475 1475 1474 1472 1472 1471 1471 1471 1470 1469 1466 1463 1462 1459 1453 1446 1439 1436 1435 1422 1407 1403 1403 1405 1408 1409 1408 1404 1399 1396 1396 1391 1387 1387 1388 1389 1388 1384 1381 1378 1375 1374 1374 1372 1375 1378 1377 1379 1381 1383 1389 1390 1394 1404 1405 1403 1416 1423 1405 1387 1384 1384 1384 1384 1383 1380 1381 1384 1385 1385 1387 1390 1391 1395 1401
1504 1498 1496 1496 1495 1492 1489 1488 1487 1484 1481 1480 1478 1475 1474 1473 1471 1472 1472 1471 1472 1471 1469 1467 1465 1465 1462 1458 1454 1445 1438 1436 1428 1416 1413 1411 1408 1408 1410 1410 1407 1402 1401 1402 1399 1394 1391 1386 1385 1389 1389 1389 1390 1385 1379 1375 1373 1372 1372 1374 1378 1379 1382 1388 1393 1401 1408 1403 1398 1406 1410 1400 1390 1388 1388 1386 1385 1384 1380 1379 1382 1384 1385 1387 1390 1395 1399 1403
1505 1499 1497 1497 1495 1493 1491 1489 1489 1486 1483 1483 1481 1477 1476 1473 1471 1472 1472 1471 1472 1471 1469 1467 1466 1465 1463 1461 1458 1451 1439 1433 1429 1423 1421 1418 1413 1411 1411 1410 1408 1406 1405 1404 1400 1396 1393 1386 1382 1382 1378 1379 1386 1381 1370 1367 1372 1375 1372 1372 1376 1377 1378 1384 1393 1401 1403 1403 1404 1401 1397 1397 1396 1393 1392 1389 1386 1386 1384 1381 1382 1385 1387 1391 1395 1399 1402 1403
1508 1502 1501 1501 1498 1494 1491 1489 1489 1488 1486 1485 1483 1479 1477 1475 1472 1471 1471 1471 1471 1470 1469 1470 1469 1467 1465 1464 1462 1457 1448 1439 1432 1427 1425 1424 1421 1417 1414 1411 1410 1409 1406 1403 1399 1397 1397 1392 1384 1381 1376 1375 1381 1381 1372 1368 1370 1372 1372 1372 1373 1375 1377 1382 1390 1392 1392 1403 1409 1398 1393 1399 1397 1392 1393 1389 1385 1387 1385 1383 1385 1388 1391 1394 1398 1400 1401 1403
1511 1507 1506 1506 1503 1497 1493 1491 1491 1490 1487 1485 1482 1480 1478 1476 1474 1472 1471 1471 1470 1470 1472 1473 1472 1469 1467 1468 1466 1461 1456 1448 1440 1439 1439 1436 1432 1423 1413 1408 1409 1410 1407 1404 1401 1401 1402 1396 1387 1383 1380 1377 1380 1383 1379 1373 1370 1369 1369 1368 1369 1372 1376 1380 1385 1384 1387 1399 1402 1393 1395 1401 1395 1389 1389 1385 1383 1385 1384 1383 1386 1390 1393 1395 1397 1400 1400 1401
1513 1511 1508 1507 1504 1500 1496 1494 1492 1490 1487 1484 1483 1482 1480 1477 1475 1473 1473 1472 1470 1473 1478 1476 1471 1469 1468 1468 1467 1464 1461 1456 1454 1455 1453 1447 1441 1431 1420 1415 1414 1412 1410 1407 1405 1404 1404 1399 1390 1385 1383 1380 1382 1384 1382 1378 1376 1374 1370 1365 1364 1368 1371 1375 1379 1379 1383 1391 1390 1388 1395 1398 1390 1385 1383 1382 1383 1384 1384 1385 1389 1391 1393 1394 1398 1400 1398 1398
1515 1513 1511 1508 1505 1500 1497 1495 1492 1489 1486 1484 1482 1480 1479 1477 1475 1474 1474 1473 1472 1473 1477 1475 1469 1467 1467 1467 1467 1465 1462 1462 1464 1463 1459 1453 1445 1437 1435 1434 1428 1422 1416 1411 1408 1407 1406 1402 1395 1392 1392 1387 1383 1384 1384 1382 1382 1381 1374 1365 1363 1366 1369 1373 1376 1377 1382 1388 1386 1387 1396 1397 1388 1381 1380 1381 1383 1385 1387 1389 1391 1393 1394 1396 1399 1400 1398 1398
1516 1514 1513 1511 1505 1500 1497 1494 1491 1488 1485 1482 1479 1478 1478 1477 1475 1475 1474 1474 1474 1474 1473 1471 1468 1466 1465 1465 1467 1465 1462 1462 1463 1461 1459 1456 1449 1443 1443 1442 1437 1432 1423 1416 1415 1411 1409 1407 1401 1401 1406 1397 1386 1387 1388 1384 1384 1385 1379 1374 1371 1370 1369 1370 1372 1373 1379 1385 1387 1390 1398 1397 1387 1382 1382 1383 1385 1388 1391 1391 1392 1394 1396 1398 1399 1399 1400 1400
1516 1513 1512 1512 1506 1499 1496 1492 1489 1487 1483 1481 1481 1480 1480 1477 1475 1476 1475 1474 1474 1473 1471 1470 1468 1466 1463 1463 1464 1464 1462 1461 1460 1458 1457 1455 1449 1445 1443 1441 1439 1437 1429 1424 1422 1416 1413 1413 1404 1402 1408 1400 1386 1385 1386 1389 1396 1393 1381 1377 1377 1375 1372 1372 1373 1374 1375 1380 1388 1393 1393 1389 1384 1384 1388 1388 1388 1391 1391 1391 1393 1395 1396 1398 1399 1400 1401 1400